Location: Blairvadach
(56.2780°N, 6.9720°W)
Time: 13:11:00
(UTC+01:00)

Envisat - Pass Details

Date: 19 February 2019
Orbit: 764 x 766 km, 98.1° (Epoch: 21 October)

Event Time Altitude Azimuth Distance (km) Brightness Sun altitude
Rises 06:28:25 0° 26° (NNE) 3,246 6.6 -11.3°
Reaches altitude 10° 06:31:58 10° 52° (NE) 2,313 6.2 -10.8°
Maximum altitude 06:34:32 14° 82° (E) 2,052 6.6 -10.4°
Drops below altitude 10° 06:37:06 10° 113° (ESE) 2,305 6.8 -10.1°
Sets 06:40:37 0° 139° (SE) 3,225 7.0 -9.6°
